Vorticity
3 5 2 3 2 2 2 2 0 -1 -1 0 1 0 1 3 4 4 4 5 8 9 9 6 4 4 4 3 6 2 3 3 3
5 4 4 3 2 3 2 3 1 1 2 2 2 1 2 1 2 3 4 4 5 7 7 8 8 7 7 4 2 5 4 5 4
6 5 5 6 6 6 7 6 4 2 2 2 2 2 2 3 1 2 4 4 5 5 6 6 6 6 7 8 5 3 5 3 5
5 5 5 4 3 4 4 5 5 6 5 7 8 7 3 4 4 3 2 3 3 5 6 7 6 6 6 7 8 6 5 3 3
5 6 8 10 10 10 9 8 8 8 7 6 6 7 7 6 5 6 4 4 6 5 5 5 7 6 6 7 8 10 8 5 3
5 6 6 6 7 9 8 8 8 9 9 8 7 5 6 7 6 5 5 5 2 4 4 4 5 6 7 6 7 8 9 9 6
3 3 4 4 4 4 5 6 9 9 10 8 8 7 6 6 5 6 6 5 5 4 4 4 5 5 6 6 6 6 7 7 8
2 2 2 3 2 2 2 0 2 4 5 8 8 8 9 8 6 6 6 6 7 7 6 4 4 5 5 5 5 5 5 5 6
2 3 3 2 3 3 2 2 1 3 4 4 4 6 7 9 9 8 7 6 7 8 7 6 5 4 4 4 4 4 4 5 5
2 2 2 2 2 1 -1 -0 5 2 3 4 3 4 4 6 7 8 6 5 5 5 7 7 8 7 6 5 5 5 4 4 4
2 3 1 1 1 1 -0 1 3 2 -2 1 5 3 3 3 3 4 5 6 6 5 5 6 6 8 9 8 8 8 7 6 5
1 1 1 1 1 0 -5 -1 2 5 -1 2 0 6 4 4 3 3 2 2 6 5 3 3 2 3 5 7 7 7 7 7 8
2 3 2 1 3 4 1 -1 1 2 1 1 2 3 5 2 2 5 4 4 3 4 6 4 2 1 0 1 3 3 2 3 5
1 1 2 3 4 4 3 2 4 1 1 4 5 4 5 2 5 7 4 5 4 3 2 5 7 6 5 3 2 2 2 2 2
-1 0 2 1 0 1 2 2 1 2 3 5 6 2 5 5 0 7 6 4 5 4 5 4 2 3 5 5 5 4 4 4 3
2 2 2 3 5 1 9 8 5 -0 4 3 5 3 2 4 2 4 6 5 4 5 4 3 5 4 2 3 4 5 5 5 5
11 9 7 4 1 2 -1 -3 -1 4 9 3 3 6 3 4 3 4 5 5 4 6 4 3 5 5 5 5 3 2 5 6 8
-2 -0 4 6 6 9 0 -0 7 7 5 8 6 6 6 4 5 7 4 4 5 4 2 5 5 6 7 2 4 4 2 8 7
4 -1 -3 0 4 8 4 -1 13 11 6 7 6 7 6 5 4 7 4 6 4 3 6 2 2 7 4 4 8 6 4 6 7
2 6 6 21 11 9 4 0 7 3 5 7 6 6 6 4 6 3 6 5 6 7 -2 12 4 3 -4 8 5 4 3 5 5
Height
5874 5875 5875 5876 5876 5875 5875 5875 5874 5873 5873 5871 5870 5868 5868 5866 5864 5862 5859 5858 5856 5854 5852 5851 5850 5847 5845 5842 5840 5838 5836 5834 5831
5873 5874 5875 5875 5875 5875 5874 5874 5873 5873 5873 5872 5871 5869 5868 5866 5865 5862 5860 5858 5856 5854 5852 5851 5849 5847 5844 5842 5840 5839 5837 5835 5832
5871 5872 5873 5874 5874 5874 5874 5874 5872 5873 5872 5871 5871 5869 5868 5866 5864 5862 5860 5858 5856 5854 5852 5850 5849 5847 5844 5842 5841 5839 5837 5835 5832
5869 5871 5872 5872 5873 5873 5873 5873 5872 5871 5870 5869 5869 5868 5867 5865 5864 5862 5860 5858 5856 5854 5852 5850 5848 5846 5844 5842 5840 5838 5837 5835 5832
5868 5869 5870 5871 5871 5871 5871 5871 5871 5870 5868 5867 5867 5866 5865 5864 5863 5861 5859 5857 5855 5853 5851 5850 5847 5846 5844 5842 5840 5838 5836 5834 5832
5866 5867 5868 5869 5869 5869 5869 5868 5869 5868 5867 5865 5865 5864 5863 5863 5862 5860 5859 5857 5854 5853 5851 5849 5847 5846 5844 5842 5840 5838 5836 5834 5832
5864 5865 5866 5867 5867 5867 5866 5866 5867 5867 5866 5864 5863 5862 5862 5861 5860 5859 5858 5856 5854 5852 5850 5849 5847 5845 5843 5841 5839 5837 5835 5833 5831
5862 5862 5864 5865 5865 5865 5865 5864 5866 5865 5865 5864 5862 5861 5860 5859 5858 5857 5856 5855 5853 5852 5849 5847 5845 5843 5841 5840 5838 5836 5834 5832 5830
5859 5859 5861 5862 5863 5863 5863 5862 5863 5863 5863 5863 5862 5860 5859 5858 5856 5855 5854 5853 5851 5850 5848 5846 5844 5841 5839 5838 5836 5834 5832 5831 5829
5856 5857 5857 5858 5860 5860 5860 5860 5861 5862 5861 5861 5860 5860 5858 5857 5856 5854 5853 5851 5849 5848 5846 5844 5843 5841 5839 5836 5835 5833 5831 5829 5827
5852 5853 5854 5856 5856 5857 5857 5857 5859 5860 5859 5860 5859 5858 5857 5855 5854 5853 5851 5849 5848 5846 5845 5843 5842 5839 5837 5835 5833 5831 5830 5828 5825
5847 5849 5851 5852 5854 5855 5854 5855 5855 5856 5856 5856 5856 5855 5854 5853 5852 5850 5849 5848 5846 5845 5843 5842 5839 5838 5836 5834 5832 5830 5827 5825 5823
5842 5845 5846 5848 5850 5851 5851 5851 5852 5853 5852 5853 5852 5852 5851 5850 5849 5847 5846 5845 5844 5842 5840 5839 5837 5835 5834 5831 5830 5828 5825 5823 5820
5837 5839 5841 5844 5846 5847 5847 5847 5848 5848 5848 5848 5848 5847 5847 5846 5846 5845 5843 5841 5841 5839 5837 5835 5834 5832 5830 5828 5826 5824 5821 5819 5817
5832 5834 5836 5838 5841 5841 5841 5842 5843 5843 5843 5843 5843 5843 5842 5841 5841 5840 5839 5837 5836 5834 5833 5831 5829 5827 5825 5824 5822 5820 5817 5815 5813
5825 5827 5829 5831 5833 5835 5836 5836 5837 5837 5837 5837 5837 5837 5836 5836 5835 5834 5833 5832 5831 5829 5828 5826 5824 5822 5820 5818 5817 5815 5812 5809 5808
5816 5818 5821 5823 5825 5828 5828 5830 5830 5831 5830 5830 5830 5830 5830 5829 5828 5827 5826 5825 5824 5823 5821 5820 5818 5816 5814 5811 5810 5808 5805 5803 5800
5805 5809 5811 5813 5816 5819 5820 5821 5822 5823 5823 5823 5823 5822 5822 5822 5822 5821 5820 5819 5818 5816 5814 5813 5811 5809 5807 5805 5802 5800 5798 5794 5792
5794 5798 5801 5804 5807 5809 5810 5810 5813 5814 5814 5815 5815 5815 5815 5814 5814 5814 5812 5811 5810 5809 5807 5805 5804 5802 5799 5797 5794 5792 5789 5786 5783
5787 5791 5793 5795 5797 5799 5800 5802 5802 5802 5804 5805 5805 5805 5805 5806 5805 5804 5804 5804 5802 5800 5798 5796 5794 5793 5790 5788 5785 5783 5780 5777 5773